This is the latest recevied weather packets stored in our database for station/object G4KVI. If no packets are shown the sender has not sent any weather packets the latest 10 day(s).
| Time | Temp. | Humidity | Pressure | Rain* | Wind** | Luminosity | Snow |
|---|---|---|---|---|---|---|---|
| 1778066704 | 13.33° C | 47% | 1016.1 hPa | 0 mm | - | 797 W/m² | - |
| 1778066404 | 13.89° C | 45% | 1016.2 hPa | 0 mm | - | 730 W/m² | - |
| 1778066104 | 13.33° C | 46% | 1016.3 hPa | 0 mm | - | 621 W/m² | - |
| 1778065804 | 13.33° C | 46% | 1016.3 hPa | 0 mm | - | 763 W/m² | - |
| 1778065504 | 13.33° C | 45% | 1016.4 hPa | 0 mm | - | 360 W/m² | - |
| 1778065203 | 13.33° C | 45% | 1016.2 hPa | 0 mm | - | 518 W/m² | - |
| 1778064904 | 13.33° C | 44% | 1016.4 hPa | 0 mm | - | 670 W/m² | - |
| 1778064604 | 13.33° C | 45% | 1016.1 hPa | 0 mm | - | 490 W/m² | - |
| 1778064304 | 12.78° C | 46% | 1016.2 hPa | 0 mm | - | 477 W/m² | - |
| 1778064004 | 12.78° C | 47% | 1016.3 hPa | 0 mm | - | 780 W/m² | - |
| 1778063704 | 12.78° C | 47% | 1016.2 hPa | 0 mm | - | 489 W/m² | - |
| 1778063403 | 12.78° C | 47% | 1016.1 hPa | 0 mm | - | 568 W/m² | - |
| 1778063104 | 12.78° C | 48% | 1016.4 hPa | 0 mm | - | 788 W/m² | - |
| 1778062804 | 12.22° C | 50% | 1016.1 hPa | 0 mm | - | 665 W/m² | - |
| 1778062504 | 12.22° C | 52% | 1016.3 hPa | 0 mm | - | 489 W/m² | - |
| 1778062204 | 12.22° C | 50% | 1016.4 hPa | 0 mm | - | 566 W/m² | - |
| 1778061903 | 12.22° C | 50% | 1016.2 hPa | 0 mm | - | 566 W/m² | - |
| 1778061604 | 11.67° C | 52% | 1016.3 hPa | 0 mm | - | 596 W/m² | - |
| 1778061303 | 11.67° C | 51% | 1016.4 hPa | 0 mm | - | 418 W/m² | - |
| 1778061025 | 11.67° C | 53% | 1016.6 hPa | 0 mm | - | 544 W/m² | - |
| 1778060703 | 11.67° C | 54% | 1016.2 hPa | 0 mm | - | 528 W/m² | - |
| 1778060404 | 11.67° C | 55% | 1016.4 hPa | 0 mm | - | 457 W/m² | - |
| 1778060103 | 11.11° C | 55% | 1016.3 hPa | 0 mm | - | 622 W/m² | - |
| 1778059804 | 11.11° C | 56% | 1016.3 hPa | 0 mm | - | 422 W/m² | - |
| 1778059504 | 11.11° C | 56% | 1016.2 hPa | 0 mm | - | 394 W/m² | - |
* Rain latest hour (hover to see other rain measurements)
** Current wind speed in m/s (hover to see current wind gust speed)